Tracking 33484 objects as of 16-Mar-2026
HD Live streaming from Space Station
objects crossing your sky now

LEMUR-2 HCS-BAZUS

Track LEMUR-2 HCS-BAZUS now!
10-day predictions
LEMUR-2 HCS-BAZUS is classified as:


NORAD ID: 67388
Int'l Code: 2026-004AB
Perigee: 604.7 km
Apogee: 610.0 km
Inclination: 97.8 °
Period: 96.7 minutes
Semi major axis: 6978 km
RCS: Unknown
Launch date: January 11, 2026
Source: United States (US)
Launch site: AIR FORCE WESTERN TEST RANGE (AFWTR)
Your satellite tracking list
Your tracking list is empty




NASA's NSSDC Master Catalog

Two Line Element Set (TLE):
1 67388U 26004AB  26074.92075571  .00004470  00000-0  47757-3 0  9997
2 67388  97.8027  75.1496 0003774  56.2433 303.9143 14.89277333  9428
Source of the keplerian elements: AFSPC